Location: Cahas Mountain Overlook
(37.0833°N, 80.1000°W)
Time: 10:29:47
(UTC-04:00)

A-11 Canister half - Pass Details

Date: 08 February 2026
Orbit: 1524 x 1683 km, 47.3° (Epoch: 16 March)

Event Time Altitude Azimuth Distance (km) Brightness Sun altitude
Rises 21:36:30 0° 277° (W) 4,671 12.3 -44.7°
Reaches altitude 10° 21:39:45 10° 284° (WNW) 3,688 11.6 -45.3°
Enters shadow 21:46:20 40° 322° (NW) 2,132 9.8 -46.5°
